Weather in Seosan

South Korea     36°47′00″N   126°27′07″E
temp.,
°C
wind,
m/s
gust,
m/s
humid.,
%
clouds,
%
prec.,
mm/h
press.,
hPa
HPBL,
m
8 march, mon
mon800:00+2nnw228240 0.0 102844
03:00+2nnw128220 0.0 102822
06:00+1nw11810 0.0 102822
09:00+5n12670 0.0 1029194
12:00+10nnw11480 0.0 1028800
15:00+10nnw32440 0.0 1026988
18:00+6nnw34570 0.0 1026216
21:00+4nnw12570 0.0 102728
9 march, tue
tue900:00+3nnw115548 0.0 102722
03:00+2n115243 0.0 102722
06:00+2nw0150100 0.0 102722
09:00+5nnw0144100 0.0 1028115
12:00+9wnw2333100 0.0 1027721
15:00+9nw4536100 0.0 1026567
18:00+6nnw255197 0.0 1026299
21:00+4nw126697 0.0 102931
10 march, wed
wed1000:00+4nnw117631 0.0 102922
03:00+3nw118016 0.0 102822
06:00+3nne11810 0.0 102922
09:00+7ene12670 0.0 1030158
12:00+13e12480 0.0 1029576
15:00+15wsw22410 0.0 1027735
18:00+11w23600 0.0 1027126
21:00+8wnw01697 0.0 102922
11 march, thu
thu1100:00+7sse1170100 0.0 102922
03:00+6ssw1169100 0.0 102822
06:00+6e1169100 0.0 102822
09:00+8ene1161100 0.0 102898
12:00+12nw2347100 0.0 1028704
15:00+12n3350100 0.0 1025529
18:00+10nnw2358100 0.0 1024210
21:00+8ne1161100 0.0 102527
12 march, fri
fri1200:00+7ne126661 0.0 102522
03:00+6n226836 0.0 102522
06:00+5n23710 0.0 102525
09:00+9nnw24650 0.0 1026265
12:00+12n45530 0.0 1026690
15:00+13n45510 0.0 1024533
18:00+10nnw23610 0.0 1024186
21:00+8n22680 0.0 102530